Location: Naloco
(16.5478°S, 37.1017°E)
Time: 02:58:24
(UTC+00:00)

Mugunghwa Rocket - Pass Details

Date: 13 August 2020
Orbit: 936 x 1372 km, 26.7° (Epoch: 23 September)

Event Time Altitude Azimuth Distance (km) Brightness Sun altitude
Rises 16:29:57 0° 288° (WNW) 3,996 8.9 -16.6°
Reaches altitude 10° 16:32:53 10° 287° (WNW) 2,970 7.8 -17.3°
Maximum altitude 16:40:06 76° 201° (SSW) 1,060 4.2 -19.0°
Enters shadow 16:43:31 31° 121° (ESE) 1,667 4.7 -19.8°
